Temp
4 4 4 5 5 6 6 7 7 7 7 8 8 9 10 10 11 12 12 12 12 12 12 13 13 14 14 14 17 19 19 20 20 20 20 21 22 23 21 23 25 24 25 26 27 26 26
4 4 4 4 5 5 5 5 6 8 6 8 8 8 9 10 10 11 11 12 11 11 12 12 12 13 13 12 18 18 19 19 20 20 20 21 22 22 23 23 23 24 24 24 25 25 26
3 3 3 4 4 4 5 5 5 6 7 6 8 8 8 9 9 10 11 11 11 11 11 12 12 11 12 14 18 17 18 18 19 19 20 21 21 21 21 22 23 23 22 21 23 25 23
3 3 4 4 3 4 4 4 5 5 6 7 7 7 7 8 9 9 10 10 11 10 10 11 11 10 9 16 18 17 17 18 18 19 19 19 20 20 20 22 22 22 21 20 22 23 24
2 3 3 4 3 3 4 4 4 4 5 6 6 7 7 7 8 9 9 9 9 9 9 9 10 10 11 15 16 18 17 17 18 18 18 18 18 19 21 19 18 19 18 19 21 24 23
2 2 2 3 3 3 3 3 4 4 4 5 7 6 7 7 7 9 8 8 8 8 8 8 9 10 12 14 16 18 18 18 18 18 18 17 18 16 17 16 16 19 19 20 20 24 23
2 3 3 3 3 3 2 2 3 3 4 5 5 7 6 6 6 8 8 7 6 6 7 8 10 11 17 17 16 17 17 17 17 18 15 17 14 13 16 17 20 20 20 21 21 24 25
2 3 3 3 3 3 2 3 3 3 3 4 5 5 6 5 6 6 8 7 8 11 8 8 11 11 15 15 16 17 17 17 17 15 16 15 15 16 19 19 19 19 19 19 21 24 24
2 2 3 2 1 1 1 2 2 3 3 4 5 5 4 5 5 5 7 9 9 12 11 10 11 11 11 13 14 17 17 17 17 16 16 15 17 19 19 20 20 20 20 21 21 22 22
2 2 1 2 2 1 2 2 2 3 3 3 4 5 5 4 5 5 6 7 8 11 8 12 10 11 13 13 15 16 17 17 17 16 17 16 18 19 19 19 20 20 22 22 22 20 18
1 1 1 1 1 1 2 2 2 3 3 3 4 4 4 4 5 5 7 6 7 8 8 13 13 13 13 13 16 16 17 17 16 17 17 17 18 18 19 20 21 20 22 21 21 19 19
0 1 1 1 1 1 2 2 2 3 3 3 3 4 4 4 5 5 6 6 7 7 8 13 14 14 13 13 16 17 16 17 18 18 18 18 20 19 20 21 21 21 20 20 19 18 15
-0 0 1 1 1 2 2 2 2 2 3 3 3 4 3 4 4 6 6 6 7 7 8 12 14 14 14 13 14 16 15 15 15 14 15 17 18 19 21 19 20 20 17 15 15 14 14
-0 0 1 1 1 2 2 3 3 3 3 4 3 3 3 4 4 5 6 7 7 8 8 14 16 14 13 14 14 15 16 15 16 17 16 16 15 18 19 19 19 18 18 15 14 14 18
-0 0 1 1 1 1 2 3 3 3 3 3 3 3 2 3 4 4 6 6 7 9 10 12 16 13 13 15 15 15 15 15 16 17 16 16 16 19 20 20 20 18 17 19 17 17 11
-0 0 0 1 0 1 2 3 3 3 3 3 3 2 3 3 3 3 6 6 4 8 13 12 14 14 12 14 15 14 15 17 16 17 18 18 15 19 20 19 19 18 19 16 15 14 14
-0 0 -0 0 0 2 2 3 3 3 3 3 2 2 3 3 2 3 5 5 6 8 11 12 11 12 14 14 15 14 16 17 17 17 17 18 16 17 19 18 18 18 17 17 17 15 13
-0 0 -0 -0 1 2 3 3 3 3 2 3 1 1 3 3 3 0 3 5 8 9 11 11 13 13 13 15 15 14 15 17 18 17 16 17 15 14 17 20 20 18 18 18 14 14 14
0 0 -1 -0 1 2 3 3 3 2 3 2 2 3 3 3 3 3 1 4 7 9 11 9 12 13 13 14 14 15 15 17 18 17 16 17 13 11 13 16 18 18 18 18 17 15 16
-0 -0 -1 -1 1 2 2 2 2 2 3 1 3 1 2 2 2 3 3 4 6 8 10 9 11 13 12 12 12 13 15 16 17 17 18 17 16 15 15 17 17 17 18 18 17 15 15
-0 -0 -0 -1 2 3 2 2 2 3 2 1 3 1 2 2 1 2 3 5 6 7 9 9 9 12 12 11 11 11 13 14 16 17 16 16 14 14 15 16 18 18 17 18 17 17 15
-0 -0 -0 -0 2 3 3 2 2 3 1 2 1 1 4 2 1 2 2 3 5 7 8 8 9 11 12 11 11 11 11 12 15 15 16 12 12 13 13 15 17 17 18 18 17 18 17
0 -0 -0 -0 1 3 3 3 2 3 0 1 3 4 5 3 2 2 3 4 4 8 9 9 9 10 11 12 13 12 11 10 11 13 13 14 12 13 12 14 14 13 16 17 17 18 18
-0 -1 -1 -0 2 2 2 2 2 1 1 2 3 4 2 -0 2 3 4 3 4 4 7 10 10 10 12 12 12 11 9 9 10 10 10 12 11 11 10 11 11 13 15 16 16 17 18
-1 -1 -1 0 1 2 2 1 1 1 1 2 3 3 4 -1 2 4 3 4 3 3 4 6 11 11 12 12 7 6 6 7 7 11 11 11 8 7 9 11 10 13 16 16 15 14 16
-0 -1 -1 1 1 1 1 2 2 2 2 2 2 3 3 0 1 5 3 3 3 3 4 4 6 9 11 5 5 8 8 7 7 9 9 9 9 8 7 9 11 10 15 17 16 11 16
-0 -0 -1 1 1 1 1 2 2 2 2 2 2 2 3 2 3 5 3 2 4 4 4 4 6 7 8 7 6 7 9 9 7 7 8 8 6 8 7 8 8 12 16 15 11 11 15
-0 0 -1 0 1 2 1 1 2 2 2 1 1 2 2 2 3 3 3 3 2 1 2 3 6 6 5 8 8 6 6 7 7 8 9 7 7 7 6 8 8 14 15 13 12 14 15
-0 -0 -1 0 1 1 1 1 1 2 1 1 0 1 1 2 0 1 1 2 2 2 1 1 2 4 7 7 6 6 6 7 7 8 9 9 8 8 9 8 10 14 14 15 16 14 14
Height
1466 1465 1465 1464 1464 1465 1467 1468 1472 1474 1476 1478 1478 1480 1484 1490 1493 1497 1502 1505 1508 1511 1514 1517 1519 1520 1520 1518 1511 1511 1513 1513 1514 1514 1515 1515 1515 1514 1514 1508 1506 1505 1506 1507 1507 1508 1509
1461 1461 1460 1459 1459 1460 1461 1462 1465 1468 1470 1471 1475 1474 1478 1483 1487 1492 1496 1500 1504 1507 1510 1513 1516 1517 1517 1515 1510 1510 1511 1512 1513 1513 1513 1514 1514 1513 1510 1507 1508 1506 1506 1507 1507 1506 1507
1456 1455 1454 1453 1453 1453 1454 1455 1458 1461 1463 1466 1468 1471 1470 1474 1480 1486 1491 1495 1499 1504 1506 1509 1512 1513 1509 1502 1507 1508 1508 1509 1510 1512 1512 1512 1510 1511 1510 1506 1505 1503 1509 1507 1504 1504 1505
1450 1449 1447 1447 1447 1447 1448 1449 1451 1454 1455 1459 1460 1465 1466 1465 1473 1480 1485 1491 1495 1500 1503 1506 1509 1509 1498 1498 1504 1503 1505 1506 1507 1509 1510 1509 1509 1509 1510 1508 1507 1508 1510 1519 1498 1497 1500
1444 1443 1441 1440 1441 1441 1442 1443 1444 1446 1449 1451 1455 1456 1461 1462 1466 1474 1481 1486 1491 1496 1500 1504 1505 1506 1495 1492 1492 1497 1501 1503 1506 1507 1508 1508 1509 1510 1508 1511 1517 1511 1523 1516 1505 1489 1496
1437 1436 1434 1433 1434 1435 1436 1437 1438 1440 1442 1444 1447 1450 1454 1460 1462 1467 1476 1482 1487 1492 1497 1499 1501 1506 1491 1483 1487 1490 1496 1500 1504 1506 1508 1508 1510 1509 1509 1515 1528 1515 1515 1507 1507 1491 1489
1429 1429 1428 1427 1427 1428 1430 1430 1432 1433 1435 1438 1441 1445 1450 1452 1456 1460 1469 1477 1488 1491 1487 1479 1481 1478 1474 1477 1482 1486 1489 1495 1500 1503 1506 1505 1511 1514 1506 1500 1499 1500 1503 1506 1494 1487 1490
1422 1422 1421 1420 1420 1421 1422 1422 1424 1426 1428 1431 1434 1438 1442 1446 1447 1458 1455 1458 1459 1474 1480 1476 1477 1477 1472 1481 1481 1480 1486 1490 1495 1496 1500 1505 1500 1497 1495 1497 1500 1501 1504 1504 1490 1486 1490
1413 1413 1412 1413 1413 1413 1414 1414 1415 1417 1419 1423 1428 1432 1435 1441 1441 1452 1453 1448 1461 1469 1471 1463 1462 1465 1470 1476 1476 1473 1477 1479 1483 1491 1492 1496 1484 1486 1490 1491 1495 1496 1499 1497 1497 1487 1486
1406 1406 1405 1405 1404 1405 1405 1405 1406 1407 1409 1413 1419 1424 1428 1433 1436 1437 1444 1455 1462 1474 1476 1452 1453 1447 1462 1469 1465 1469 1471 1479 1479 1484 1490 1487 1482 1482 1485 1487 1487 1495 1483 1485 1490 1499 1512
1399 1398 1397 1396 1396 1395 1394 1395 1396 1397 1399 1403 1410 1416 1421 1427 1426 1427 1434 1448 1456 1467 1463 1436 1433 1439 1442 1453 1448 1453 1463 1471 1472 1471 1480 1469 1471 1477 1476 1476 1479 1485 1481 1488 1490 1497 1499
1390 1389 1387 1386 1386 1385 1384 1384 1385 1387 1390 1394 1401 1407 1414 1416 1415 1418 1435 1444 1445 1444 1430 1417 1412 1422 1435 1439 1442 1445 1453 1463 1465 1469 1463 1464 1461 1466 1464 1467 1471 1476 1482 1488 1492 1498 1518
1380 1379 1377 1376 1375 1373 1372 1372 1374 1377 1381 1385 1393 1398 1406 1408 1409 1417 1426 1434 1431 1414 1420 1412 1403 1409 1411 1426 1440 1440 1446 1452 1458 1473 1466 1465 1459 1460 1458 1468 1467 1472 1488 1516 1522 1524 1513
1370 1369 1367 1365 1362 1359 1359 1359 1361 1365 1371 1376 1386 1393 1396 1400 1409 1412 1419 1415 1404 1405 1412 1395 1393 1405 1412 1415 1428 1431 1437 1445 1446 1445 1457 1462 1470 1453 1450 1456 1464 1470 1475 1500 1520 1519 1491
1361 1359 1356 1352 1348 1345 1344 1346 1349 1353 1361 1368 1380 1387 1392 1394 1400 1406 1405 1402 1391 1396 1394 1391 1383 1401 1409 1406 1409 1422 1424 1423 1427 1429 1443 1452 1451 1439 1444 1447 1453 1467 1476 1469 1485 1483 1511
1353 1349 1345 1340 1335 1331 1329 1331 1336 1342 1351 1360 1368 1378 1380 1390 1396 1397 1387 1387 1398 1389 1380 1383 1383 1387 1399 1398 1404 1415 1414 1405 1417 1423 1427 1431 1454 1435 1438 1446 1447 1452 1461 1485 1488 1502 1502
1344 1340 1334 1328 1322 1317 1314 1315 1321 1329 1341 1352 1360 1370 1372 1381 1391 1388 1375 1377 1390 1386 1377 1381 1390 1391 1388 1394 1395 1405 1397 1402 1408 1414 1424 1428 1435 1436 1433 1431 1444 1455 1461 1461 1467 1474 1488
1335 1330 1323 1315 1309 1304 1301 1300 1308 1318 1332 1344 1351 1362 1367 1377 1384 1376 1378 1372 1374 1379 1375 1381 1378 1381 1383 1386 1390 1398 1394 1389 1394 1405 1420 1419 1434 1444 1429 1421 1426 1433 1435 1442 1465 1471 1468
1327 1321 1313 1305 1298 1295 1293 1294 1301 1311 1321 1332 1345 1354 1365 1370 1365 1367 1374 1372 1367 1367 1371 1381 1375 1375 1379 1383 1391 1385 1387 1386 1389 1396 1402 1415 1431 1452 1448 1432 1420 1424 1434 1438 1443 1451 1452
1319 1312 1304 1295 1289 1288 1288 1291 1298 1306 1314 1328 1340 1352 1361 1362 1361 1364 1369 1362 1362 1363 1363 1377 1371 1375 1379 1385 1387 1387 1381 1383 1387 1390 1398 1408 1411 1410 1408 1399 1416 1425 1423 1428 1437 1450 1448
1313 1305 1295 1287 1282 1281 1282 1286 1294 1302 1309 1322 1329 1338 1343 1351 1358 1360 1361 1364 1360 1357 1364 1371 1374 1369 1372 1380 1384 1386 1384 1384 1380 1386 1390 1400 1405 1408 1403 1407 1408 1413 1418 1418 1423 1422 1439
1307 1299 1289 1280 1275 1274 1276 1281 1289 1296 1305 1316 1321 1330 1336 1342 1347 1359 1362 1357 1353 1358 1357 1363 1364 1362 1367 1367 1375 1382 1383 1386 1379 1382 1384 1398 1408 1410 1412 1408 1409 1407 1404 1405 1409 1413 1418
1301 1291 1281 1273 1269 1270 1271 1275 1284 1293 1303 1311 1319 1326 1331 1337 1345 1349 1349 1353 1354 1352 1353 1356 1359 1365 1368 1357 1368 1374 1376 1382 1380 1384 1387 1387 1400 1403 1406 1408 1412 1420 1390 1400 1403 1403 1408
1295 1284 1272 1264 1260 1263 1269 1271 1278 1288 1302 1311 1317 1324 1329 1341 1341 1342 1343 1345 1349 1359 1355 1347 1352 1362 1350 1367 1369 1373 1377 1379 1379 1379 1387 1383 1398 1396 1406 1411 1415 1390 1388 1393 1396 1396 1396
1291 1278 1266 1257 1250 1258 1268 1276 1283 1293 1305 1313 1318 1323 1328 1337 1336 1340 1344 1346 1355 1356 1353 1348 1344 1348 1359 1362 1372 1384 1387 1381 1378 1372 1378 1379 1392 1407 1401 1400 1404 1393 1380 1384 1392 1396 1391
1289 1278 1266 1258 1257 1263 1271 1279 1287 1296 1305 1313 1318 1323 1327 1332 1334 1336 1342 1345 1349 1349 1349 1347 1348 1351 1356 1363 1368 1367 1374 1373 1380 1372 1370 1376 1380 1392 1403 1403 1399 1390 1373 1375 1383 1407 1385
1290 1280 1269 1264 1265 1268 1273 1281 1288 1296 1305 1312 1317 1322 1328 1330 1331 1333 1335 1338 1337 1344 1340 1340 1342 1346 1347 1353 1357 1361 1360 1363 1372 1375 1370 1371 1390 1385 1395 1398 1396 1375 1369 1373 1405 1400 1382
1292 1282 1273 1268 1268 1269 1273 1282 1289 1297 1304 1311 1317 1323 1327 1329 1332 1332 1334 1338 1341 1345 1345 1341 1336 1333 1333 1338 1343 1352 1360 1359 1364 1358 1360 1376 1382 1388 1398 1395 1397 1366 1370 1382 1385 1381 1382
1295 1285 1274 1267 1267 1270 1275 1282 1289 1296 1303 1311 1316 1322 1326 1329 1330 1331 1333 1335 1336 1339 1345 1344 1336 1338 1329 1326 1335 1345 1353 1351 1351 1355 1353 1362 1358 1375 1380 1382 1366 1363 1364 1368 1372 1376 1381
Wind_Speed
20 23 24 25 27 29 30 33 34 33 34 26 23 27 35 36 35 37 36 33 30 27 24 21 19 18 15 12 22 16 10 6 3 6 5 8 11 11 6 6 9 5 3 12 4 2 5
20 21 22 23 26 28 31 31 32 37 31 35 23 16 32 37 36 35 35 34 31 28 25 22 18 17 16 12 14 11 12 11 8 5 6 7 6 5 6 6 3 4 7 11 8 11 9
24 24 24 23 24 27 30 34 33 32 40 30 28 24 16 33 38 35 33 33 32 29 25 22 19 17 21 29 7 6 11 13 5 9 13 9 8 2 11 4 8 6 3 8 12 15 7
25 26 27 25 25 26 27 31 33 32 34 39 30 26 19 21 34 37 32 30 30 28 25 21 19 17 17 26 27 19 12 6 10 15 7 2 10 9 4 9 5 0 2 2 7 14 11
25 27 28 27 25 26 25 28 32 32 30 38 40 36 35 14 30 36 30 27 26 26 23 20 18 15 13 10 30 33 25 19 13 10 10 3 3 4 5 2 2 5 4 8 8 11 7
26 28 28 28 27 26 26 26 29 33 32 31 42 39 51 50 16 30 29 24 23 23 22 17 18 7 23 18 15 29 22 23 18 11 8 6 5 2 1 4 6 6 6 5 8 3 7
29 31 30 28 29 28 29 28 28 32 35 31 33 49 44 35 47 27 32 26 15 11 27 17 14 13 3 11 12 23 28 23 22 17 7 14 4 8 12 13 5 5 5 7 6 5 2
31 31 30 29 30 31 31 31 29 31 35 34 33 38 47 50 45 39 41 44 41 6 9 38 30 29 40 13 8 23 24 25 20 14 11 5 14 11 13 10 11 12 12 8 9 4 4
31 32 31 31 31 30 30 31 32 33 34 38 35 35 42 43 39 30 36 51 35 14 6 14 47 39 32 21 20 23 29 29 18 13 16 13 8 21 15 11 13 13 13 6 7 7 6
31 33 32 34 33 35 35 34 34 34 34 40 36 37 36 31 29 34 25 35 39 27 4 9 14 19 36 13 14 28 31 26 8 18 14 15 22 14 16 16 10 13 4 4 5 5 6
32 33 36 34 35 38 39 37 37 35 35 41 38 37 32 37 30 29 52 34 43 17 9 11 21 12 33 28 18 31 31 34 16 11 13 11 14 22 19 15 15 6 6 2 1 2 3
33 34 33 33 37 38 39 37 36 34 33 40 39 37 33 37 33 34 33 35 36 9 12 9 22 19 21 38 21 16 32 34 23 13 16 23 14 16 16 7 15 8 6 3 3 1 5
33 32 33 35 39 40 40 40 40 36 34 42 39 36 37 39 26 28 25 36 10 9 4 14 21 26 31 24 25 10 22 24 12 12 15 11 21 14 8 10 6 6 8 2 2 2 8
31 31 33 36 40 42 42 40 38 38 37 43 39 36 38 39 47 25 35 17 13 13 12 7 13 27 26 21 25 28 23 23 25 17 10 14 10 19 5 8 13 9 11 6 8 5 6
27 31 34 40 43 43 38 36 35 37 38 43 38 37 40 41 39 42 33 14 9 18 16 6 13 26 17 20 14 24 20 30 28 26 12 16 15 7 12 6 13 8 11 7 3 1 2
27 30 35 40 41 37 38 38 37 36 39 44 41 37 43 40 34 46 13 26 7 10 15 16 12 15 23 25 10 24 22 25 27 29 18 4 6 11 16 11 14 9 9 7 5 5 6
29 31 37 37 37 36 37 36 36 38 43 46 38 20 33 41 36 28 9 14 16 24 19 25 12 14 16 20 25 30 17 10 27 28 23 11 4 9 8 21 18 13 11 8 8 9 6
30 32 37 35 33 31 29 29 35 40 45 48 28 7 26 28 14 2 8 11 18 19 31 8 9 10 13 18 21 22 31 24 27 23 30 20 1 6 17 18 22 26 26 22 6 6 6
29 31 36 31 28 25 19 23 33 44 55 49 23 10 15 29 10 6 0 6 18 19 20 9 17 19 14 15 15 22 26 23 20 29 27 20 6 3 7 9 13 26 18 17 16 1 17
29 32 37 32 23 20 18 25 36 47 57 46 16 5 10 19 6 5 8 4 9 23 16 12 7 8 11 8 7 7 20 15 33 25 33 26 12 24 22 23 7 19 24 24 18 11 7
29 33 36 34 19 17 21 28 39 55 55 39 11 5 10 7 10 5 9 6 13 11 12 24 14 14 19 13 12 9 13 15 12 30 21 20 27 18 22 11 10 21 18 24 26 24 15
30 34 33 29 18 16 19 37 43 59 54 29 10 7 9 5 14 17 10 4 12 20 15 11 14 19 16 14 17 12 3 4 16 12 15 8 13 16 13 18 16 13 25 27 28 21 25
34 39 33 26 17 18 23 38 50 55 53 19 18 13 17 6 7 8 6 14 7 15 16 27 27 16 21 25 14 7 6 10 2 8 12 16 10 16 20 15 10 12 28 23 22 22 18
38 43 34 22 18 30 28 39 54 48 52 24 19 18 5 3 6 8 9 10 18 19 18 24 35 23 28 15 15 3 4 10 11 14 8 14 10 7 5 5 11 9 11 18 9 12 16
36 46 33 19 7 35 34 33 37 41 49 18 23 16 7 2 3 7 8 7 8 20 21 17 22 42 19 22 4 0 1 2 3 22 19 12 7 2 5 12 2 8 10 20 8 12 11
38 46 33 12 6 32 34 35 37 42 50 24 18 22 5 4 5 14 9 6 3 3 10 12 30 26 29 3 4 9 5 3 3 3 9 9 6 6 4 5 13 6 6 7 4 5 5
44 42 32 9 7 22 31 32 34 39 43 37 17 22 17 3 3 6 2 4 6 4 3 2 9 16 24 12 4 5 9 8 6 5 2 7 2 6 4 3 5 7 5 22 6 6 3
42 40 36 10 5 21 30 32 33 36 38 43 25 15 19 5 2 2 2 5 5 5 2 6 0 8 2 13 8 3 3 6 3 5 13 8 7 3 3 2 7 9 6 10 10 10 17
40 43 38 10 1 11 32 30 31 33 34 35 27 23 16 9 4 8 6 6 10 10 6 5 11 7 8 5 3 4 3 4 9 6 4 7 8 6 8 6 7 7 8 24 26 18 15
Wind_Direction
296 288 287 284 282 282 281 275 265 260 256 264 265 252 245 246 242 241 238 237 240 243 244 250 256 262 268 256 244 289 280 286 211 219 215 285 275 270 239 291 308 170 252 286 217 229 216
297 292 286 287 284 280 280 279 275 262 259 250 264 262 252 246 241 240 238 236 236 240 242 246 250 253 257 252 248 267 265 250 245 231 260 253 277 294 287 297 322 60 1 314 302 289 244
290 288 289 288 287 283 278 277 276 272 258 252 249 262 268 248 241 239 236 235 235 237 239 241 247 253 246 236 192 222 274 251 223 249 268 249 243 307 337 288 335 22 353 309 267 252 244
290 290 289 287 286 283 279 274 272 272 267 254 241 251 274 245 242 235 233 231 233 234 236 238 242 247 255 251 237 241 207 258 229 208 223 326 237 249 265 319 335 153 196 258 256 219 230
288 290 289 287 282 289 280 274 269 268 270 262 253 243 250 297 243 229 228 226 229 231 232 234 238 237 265 255 221 218 222 236 234 215 221 266 245 248 235 150 333 241 221 214 288 233 155
287 288 292 290 281 275 279 272 265 262 262 263 254 250 245 251 283 225 220 217 220 225 224 224 226 246 252 232 217 220 213 214 214 209 214 239 231 229 261 151 205 209 212 242 245 266 135
286 288 289 289 287 279 278 278 266 258 256 257 251 245 242 255 248 245 201 196 185 222 212 194 203 206 156 270 218 216 202 200 210 231 169 209 175 200 216 217 251 277 273 267 269 289 29
284 286 289 288 286 284 279 276 270 261 252 250 247 240 241 248 255 254 211 197 196 201 209 226 227 232 237 267 264 213 199 194 203 213 175 248 226 212 219 221 220 241 257 261 289 286 269
283 288 287 287 284 282 282 276 270 261 254 244 243 243 234 235 247 242 215 215 209 187 282 205 223 230 228 244 246 220 194 192 197 200 195 211 215 205 226 226 226 226 229 230 235 313 295
282 287 284 286 283 281 280 274 271 266 257 240 237 237 235 230 236 232 234 236 207 213 278 239 199 233 216 229 237 215 204 197 197 205 211 231 232 239 210 231 219 233 215 257 274 271 261
281 281 282 284 283 284 282 275 271 263 255 235 232 235 232 219 228 228 242 245 198 192 226 217 198 192 193 199 143 203 193 197 206 184 191 216 185 219 224 210 220 237 178 126 360 315 354
280 281 283 283 284 284 282 274 270 259 249 230 227 229 224 216 230 232 238 240 193 203 210 228 164 185 167 201 210 170 193 200 213 217 219 225 252 203 221 187 202 180 123 74 14 60 272
284 284 281 285 286 283 277 272 267 255 239 224 223 223 218 215 230 206 209 200 196 224 112 219 182 170 180 188 202 208 186 192 185 201 221 224 225 239 182 201 182 129 110 93 261 190 237
287 286 284 283 285 282 276 270 262 248 232 219 218 218 217 225 223 202 210 198 212 172 192 230 191 174 190 171 199 200 186 192 210 204 185 200 213 219 198 185 194 178 170 168 190 197 251
293 289 288 288 289 283 272 262 255 240 224 216 212 215 218 220 226 220 193 234 199 171 201 229 203 167 194 185 178 189 199 199 199 202 185 196 221 149 190 159 157 192 205 188 353 259 35
295 298 299 295 291 279 274 263 248 233 217 210 204 204 216 215 217 224 212 212 210 238 202 228 173 183 187 195 173 195 196 210 203 205 214 180 204 207 187 154 225 174 146 186 218 208 225
302 301 310 299 290 283 276 259 235 224 206 202 188 182 221 217 214 218 242 198 209 247 251 196 181 193 209 188 205 192 202 207 203 200 209 219 164 207 163 202 184 203 205 201 173 215 182
308 310 311 303 294 288 276 245 219 204 196 192 172 174 210 202 209 206 214 210 203 212 234 266 181 189 204 208 208 188 212 208 196 189 199 205 195 206 213 212 201 204 208 202 192 188 225
314 314 321 309 295 289 265 219 202 191 191 174 175 147 184 195 220 194 153 231 205 201 206 203 204 209 214 203 211 219 210 216 231 189 198 188 203 115 333 282 226 202 207 213 223 160 220
324 319 324 317 284 276 236 206 197 190 188 170 156 154 175 190 253 208 206 238 192 214 193 200 252 200 199 222 226 246 233 214 218 201 196 192 209 209 213 222 150 203 196 206 206 224 200
327 329 325 316 283 255 223 204 194 190 182 164 153 176 165 172 196 184 176 232 197 188 208 194 222 201 194 207 244 251 246 238 219 216 203 188 219 216 233 248 228 221 213 209 210 220 210
335 333 328 314 279 236 218 197 191 187 177 176 136 142 160 143 145 184 180 221 211 209 178 219 221 217 207 201 196 210 187 262 222 236 217 146 240 223 220 221 241 236 229 218 221 221 226
343 339 330 309 286 218 217 194 192 188 173 174 175 168 163 165 154 166 200 216 230 220 217 207 209 215 214 222 204 196 170 291 225 191 236 187 226 195 224 207 205 230 226 212 222 226 212
347 348 336 314 280 205 197 175 181 178 178 180 180 168 110 161 174 185 173 203 238 246 241 211 212 212 223 202 186 160 64 249 226 243 249 204 215 178 180 115 212 252 203 228 217 237 222
350 354 345 324 298 189 187 180 175 179 184 179 180 168 161 154 149 151 179 172 224 250 253 269 229 218 210 199 121 145 336 29 318 229 199 238 149 125 160 200 12 260 231 196 172 245 241
360 2 354 340 170 184 185 187 187 187 187 180 186 195 154 99 225 193 175 174 150 257 209 240 253 238 212 128 166 195 200 139 188 253 140 106 157 141 150 169 211 195 221 125 103 265 218
6 7 2 14 176 188 187 191 191 191 191 193 196 194 200 217 279 271 185 172 167 282 234 203 219 234 241 207 157 176 207 167 184 186 189 119 74 164 141 157 273 249 171 107 131 231 65
7 5 3 357 189 203 189 188 193 195 195 197 196 193 198 189 292 247 233 152 167 175 305 345 153 213 278 214 198 143 176 177 164 220 195 188 153 149 134 138 256 203 157 140 201 173 119
7 6 4 351 289 180 194 190 196 199 198 197 204 205 211 222 243 247 247 223 227 234 225 265 323 296 191 222 149 133 180 164 167 198 202 185 168 159 187 200 238 168 143 144 161 149 132